When you browse on this site, cookies collect data to enhance your experience and personalize the content and advertising you see.
Visit our Privacy Policy to learn more. By continuing to use the site, you agree to this use of cookies and data.
  • In Hungary
  • List of Countries
  • For 7 days
  • Water Temperature
  • Weather Map
  • News
  • Weather Widgets
  • user-avatar
    Login

    Hourly Weather Escondido

    Today, 18 November, Monday

    Time Temperature Precipitation Wind Pressure Humidity
    00:00 +18°C° 0 mm 2 mps 742 mmHg 28%
    01:00 +18°C° 0 mm 2 mps 742 mmHg 28%
    02:00 +18°C° 0 mm 2 mps 742 mmHg 28%
    03:00 +18°C° 0 mm 2 mps 741 mmHg 28%
    04:00 +18°C° 0 mm 2 mps 741 mmHg 29%
    05:00 +18°C° 0 mm 2 mps 741 mmHg 27%
    06:00 +19°C° 0 mm 2 mps 742 mmHg 25%
    07:00 +19°C° 0 mm 2 mps 742 mmHg 23%
    08:00 +24°C° 0 mm 1 mps 742 mmHg 20%
    09:00 +27°C° 0 mm 1 mps 742 mmHg 16%
    10:00 +31°C° 0 mm 1 mps 742 mmHg 13%
    11:00 +31°C° 0 mm 1 mps 741 mmHg 13%
    12:00 +32°C° 0 mm 2 mps 741 mmHg 12%
    13:00 +33°C° 0 mm 3 mps 740 mmHg 12%
    14:00 +31°C° 0 mm 2 mps 740 mmHg 15%
    15:00 +29°C° 0 mm 2 mps 739 mmHg 18%
    16:00 +27°C° 0 mm 2 mps 739 mmHg 21%
    17:00 +25°C° 0 mm 1 mps 739 mmHg 23%
    18:00 +23°C° 0 mm 1 mps 739 mmHg 25%
    19:00 +21°C° 0 mm 1 mps 739 mmHg 27%
    20:00 +20°C° 0 mm 1 mps 739 mmHg 30%
    21:00 +19°C° 0 mm 1 mps 739 mmHg 33%
    22:00 +16°C° 0 mm 0 mps 739 mmHg 36%
    23:00 +16°C° 0 mm 0 mps 739 mmHg 37%

    Tomorrow, 19 November, Tuesday

    Time Temperature Precipitation Wind Pressure Humidity
    00:00 +16°C° 0 mm 0 mps 739 mmHg 38%
    01:00 +15°C° 0 mm 0 mps 738 mmHg 40%
    02:00 +15°C° 0 mm 0 mps 738 mmHg 41%
    03:00 +15°C° 0 mm 0 mps 738 mmHg 42%
    04:00 +15°C° 0 mm 0 mps 737 mmHg 43%
    05:00 +16°C° 0 mm 0 mps 737 mmHg 40%
    06:00 +16°C° 0 mm 0 mps 737 mmHg 37%
    07:00 +17°C° 0 mm 0 mps 737 mmHg 34%
    08:00 +21°C° 0 mm 1 mps 737 mmHg 29%
    09:00 +24°C° 0 mm 1 mps 738 mmHg 23%
    10:00 +26°C° 0 mm 2 mps 738 mmHg 18%
    11:00 +26°C° 0 mm 3 mps 737 mmHg 22%
    12:00 +26°C° 0 mm 3 mps 736 mmHg 25%
    13:00 +26°C° 0 mm 4 mps 735 mmHg 29%
    14:00 +23°C° 0 mm 4 mps 735 mmHg 36%
    15:00 +22°C° 0 mm 3 mps 735 mmHg 44%
    16:00 +20°C° 0 mm 3 mps 734 mmHg 51%
    17:00 +19°C° 0 mm 3 mps 734 mmHg 59%
    18:00 +18°C° 0 mm 3 mps 734 mmHg 67%
    19:00 +17°C° 0 mm 3 mps 733 mmHg 74%
    20:00 +17°C° 0.1 mm 3 mps 733 mmHg 78%
    21:00 +15°C° 0.1 mm 4 mps 733 mmHg 83%
    22:00 +15°C° 0.1 mm 5 mps 733 mmHg 87%
    23:00 +15°C° 0.2 mm 5 mps 733 mmHg 86%

    Day after tomorrow, 20 November, Wednesday

    Time Temperature Precipitation Wind Pressure Humidity
    00:00 +14°C° 0.2 mm 6 mps 733 mmHg 85%
    01:00 +14°C° 0.2 mm 6 mps 733 mmHg 83%
    02:00 +14°C° 0.1 mm 6 mps 733 mmHg 83%
    03:00 +13°C° 0.1 mm 5 mps 732 mmHg 83%
    04:00 +13°C° 0.1 mm 5 mps 732 mmHg 82%
    05:00 +13°C° 0.5 mm 4 mps 733 mmHg 82%
    06:00 +13°C° 0.5 mm 3 mps 733 mmHg 81%
    07:00 +12°C° 0.5 mm 3 mps 733 mmHg 81%
    08:00 +13°C° 1.2 mm 3 mps 733 mmHg 80%
    09:00 +13°C° 1.2 mm 3 mps 733 mmHg 78%
    10:00 +13°C° 1.2 mm 4 mps 734 mmHg 77%
    11:00 +14°C° 1 mm 4 mps 733 mmHg 74%
    12:00 +14°C° 1 mm 5 mps 733 mmHg 71%
    13:00 +15°C° 1 mm 5 mps 732 mmHg 68%
    14:00 +15°C° 0.4 mm 5 mps 732 mmHg 70%
    15:00 +14°C° 0.4 mm 4 mps 732 mmHg 71%
    16:00 +14°C° 0.4 mm 4 mps 732 mmHg 73%
    17:00 +13°C° 0.3 mm 3 mps 732 mmHg 78%
    18:00 +13°C° 0.3 mm 3 mps 733 mmHg 82%
    19:00 +12°C° 0.3 mm 3 mps 733 mmHg 87%
    20:00 +13°C° 0.3 mm 2 mps 734 mmHg 87%
    21:00 +13°C° 0.3 mm 2 mps 734 mmHg 87%
    22:00 +13°C° 0.3 mm 2 mps 735 mmHg 87%
    23:00 +13°C° 0.5 mm 2 mps 735 mmHg 87%

    21 November, Thursday

    Time Temperature Precipitation Wind Pressure Humidity
    00:00 +13°C° 0.5 mm 2 mps 735 mmHg 87%
    01:00 +14°C° 0.5 mm 2 mps 735 mmHg 87%
    02:00 +13°C° 0.6 mm 2 mps 735 mmHg 88%
    03:00 +13°C° 0.6 mm 2 mps 736 mmHg 89%
    04:00 +13°C° 0.6 mm 2 mps 736 mmHg 90%
    05:00 +13°C° 0.5 mm 2 mps 736 mmHg 89%
    06:00 +13°C° 0.5 mm 2 mps 737 mmHg 87%
    07:00 +13°C° 0.5 mm 1 mps 737 mmHg 86%
    08:00 +14°C° 0.5 mm 2 mps 738 mmHg 81%
    09:00 +15°C° 0.5 mm 2 mps 738 mmHg 75%
    10:00 +16°C° 0.5 mm 2 mps 739 mmHg 69%
    11:00 +16°C° 0.2 mm 2 mps 739 mmHg 67%
    12:00 +16°C° 0.2 mm 2 mps 739 mmHg 64%
    13:00 +17°C° 0.2 mm 2 mps 739 mmHg 61%
    14:00 +17°C° 0 mm 2 mps 739 mmHg 62%
    15:00 +17°C° 0 mm 2 mps 739 mmHg 63%
    16:00 +16°C° 0 mm 2 mps 740 mmHg 64%
    17:00 +15°C° 0 mm 2 mps 740 mmHg 70%
    18:00 +14°C° 0 mm 1 mps 741 mmHg 76%
    19:00 +12°C° 0 mm 0 mps 741 mmHg 83%
    20:00 +12°C° 0 mm 0 mps 742 mmHg 83%
    21:00 +11°C° 0 mm 0 mps 742 mmHg 83%
    22:00 +11°C° 0 mm 0 mps 743 mmHg 83%
    23:00 +12°C° 0 mm 1 mps 743 mmHg 82%

    22 November, Friday

    Time Temperature Precipitation Wind Pressure Humidity
    00:00 +12°C° 0 mm 1 mps 743 mmHg 82%
    01:00 +12°C° 0 mm 1 mps 743 mmHg 82%
    02:00 +12°C° 0 mm 1 mps 743 mmHg 80%
    03:00 +12°C° 0 mm 1 mps 744 mmHg 79%
    04:00 +12°C° 0 mm 1 mps 744 mmHg 78%
    05:00 +12°C° 0 mm 1 mps 744 mmHg 76%
    06:00 +12°C° 0 mm 1 mps 745 mmHg 74%
    07:00 +12°C° 0 mm 1 mps 745 mmHg 73%
    08:00 +15°C° 0 mm 1 mps 746 mmHg 63%
    09:00 +18°C° 0 mm 1 mps 746 mmHg 54%
    10:00 +19°C° 0 mm 2 mps 746 mmHg 45%
    11:00 +20°C° 0 mm 2 mps 746 mmHg 42%
    12:00 +21°C° 0 mm 2 mps 745 mmHg 40%
    13:00 +21°C° 0 mm 3 mps 745 mmHg 37%
    14:00 +21°C° 0 mm 3 mps 745 mmHg 40%
    15:00 +20°C° 0 mm 3 mps 745 mmHg 42%
    16:00 +19°C° 0 mm 3 mps 745 mmHg 45%
    17:00 +18°C° 0 mm 2 mps 745 mmHg 49%
    18:00 +17°C° 0 mm 2 mps 745 mmHg 53%
    19:00 +15°C° 0 mm 2 mps 746 mmHg 57%
    20:00 +15°C° 0 mm 2 mps 746 mmHg 56%
    21:00 +15°C° 0 mm 2 mps 746 mmHg 55%
    22:00 +14°C° 0 mm 2 mps 746 mmHg 55%
    23:00 +14°C° 0 mm 2 mps 746 mmHg 55%

    23 November, Saturday

    Time Temperature Precipitation Wind Pressure Humidity
    00:00 +14°C° 0 mm 2 mps 746 mmHg 55%
    01:00 +14°C° 0 mm 2 mps 746 mmHg 55%
    02:00 +14°C° 0 mm 2 mps 746 mmHg 55%
    03:00 +14°C° 0 mm 2 mps 745 mmHg 55%
    04:00 +13°C° 0 mm 2 mps 745 mmHg 55%
    05:00 +13°C° 0 mm 2 mps 745 mmHg 54%
    06:00 +14°C° 0 mm 2 mps 746 mmHg 54%
    07:00 +14°C° 0 mm 2 mps 746 mmHg 54%
    08:00 +16°C° 0 mm 1 mps 746 mmHg 47%
    09:00 +19°C° 0 mm 1 mps 746 mmHg 41%
    10:00 +21°C° 0 mm 1 mps 746 mmHg 34%
    11:00 +22°C° 0 mm 1 mps 746 mmHg 32%
    12:00 +23°C° 0 mm 2 mps 745 mmHg 30%
    13:00 +24°C° 0 mm 2 mps 744 mmHg 28%
    14:00 +23°C° 0 mm 2 mps 744 mmHg 32%
    15:00 +21°C° 0 mm 2 mps 744 mmHg 36%
    16:00 +20°C° 0 mm 2 mps 744 mmHg 41%
    17:00 +18°C° 0 mm 2 mps 744 mmHg 45%
    18:00 +16°C° 0 mm 1 mps 744 mmHg 50%
    19:00 +15°C° 0 mm 1 mps 744 mmHg 55%
    20:00 +14°C° 0 mm 1 mps 744 mmHg 55%
    21:00 +14°C° 0 mm 1 mps 744 mmHg 55%
    22:00 +14°C° 0 mm 1 mps 744 mmHg 54%
    23:00 +13°C° 0 mm 1 mps 744 mmHg 55%
    Show more